Regional Weather Roundup
Issued by NWS Nashville, TN

Home | Current Version | Previous Version | Text Only | Print | Product List | Glossary On
Versions: 1 2 3 4 5 6 7 8 9 10 11 12 13 14 15 16 17 18 19 20 21 22 23 24 25 26 27 28 29 30 31 32 33 34 35 36 37 38 39 40 41 42 43 44 45 46 47 48 49 50
000
ASUS44 KOHX 182005
RWROHX
MIDDLE TENNESSEE HOURLY WEATHER ROUNDUP
NATIONAL WEATHER SERVICE NASHVILLE TN
300 PM CDT THU SEP 18 2014

NOTE: "FAIR" INDICATES FEW OR NO CLOUDS BELOW 12,000 FEET WITH
NO SIGNIFICANT WEATHER AND/OR OBSTRUCTIONS TO VISIBILITY.

* THESE REPORTS ARE NOT UNDER NWS QUALITY CONTROL AND MAY NOT
  REPORT WEATHER SUCH AS PRECIPITATION AND FOG.


TNZ005>011-023>034-057-059-062>066-078-080-182100
...NORTHERN MIDDLE TENNESSEE...

CITY           SKY/WX    TMP DP  RH WIND       PRES   REMARKS
CLARKSVILLE    CLOUDY    75  56  51 NE6       29.99F
CROSSVILLE     PTSUNNY   75  53  46 VRB3      30.02F
NASHVILLE      CLOUDY    77  57  50 N6        29.99F
SMYRNA         PTSUNNY   78  56  46 N7        29.99F
SPARTA         SUNNY     79  61  53 NW3       29.99F
$$
TNZ056-058-060-061-075>077-079-093>097-182100
...SOUTHERN MIDDLE TENNESSEE...

CITY           SKY/WX    TMP DP  RH WIND       PRES   REMARKS
COLUMBIA       PTSUNNY   77  61  57 E5        29.97S
FAYETTEVILLE   MOSUNNY   75  57  53 NE5       29.97F
MCMINNVILLE    SUNNY     79  55  44 NE8       29.99F
SHELBYVILLE    PTSUNNY   82  57  42 CALM      29.98F
TULLAHOMA      MOSUNNY   79  52  38 CALM      29.99F
WINCHESTER     MOSUNNY   81  54  39 N7        29.97F
$$


...KEY TO REMARKS...
VSB - VISIBILITY IN MILES
WCI - WIND CHILL INDEX
HX  - HEAT INDEX




USA.gov is the U.S. government's official web portal to all federal, state and local government web resources and services.